[[{"header":{"parameterUnit":"m.s-1","parameterCategory":1,"la1":30.2991,"la2":30.254,"lo1":-89.0895,"lo2":-89.0444,"dy":0.0017,"dx":0.0017,"nx":28,"ny":28,"refTime":"2024-06-03T21:00:00:Z","depth":0,"parameterNumber":2,"parameterNumberName":"U-component_of_WINDS"},"data":[0,0,0,0,0,0,0,0,0,0,0,0,0,0,0,0,0,0,0,0,0,0,0,0,0,0,0,0,0,0,0,0,0,0,0,0,0,0,0,0,0,0,0,0,0,0,0,0,0,0,0,0,0,0,0,0,0,0,-0.936,-0.9361,0,-0.9464,-0.9465,-0.9467,-0.9574,-0.9575,-0.9577,-0.9578,-0.9685,-0.9687,-0.9688,0,0,0,0,0,0,0,0,0,0,0,0,0,-0.9251,-0.9253,-0.9359,-0.9361,-0.9362,-0.9464,-0.9465,-0.9467,-0.9574,-0.9575,-0.9577,-0.9579,-0.9685,-0.9687,-0.9688,0,0,0,0,0,0,0,0,0,0,0,0,0,-0.9321,-0.9253,-0.9359,-0.9428,-0.9435,-0.9464,-0.9466,-0.9467,-0.9573,-0.9575,-0.9578,-0.958,-0.9684,-0.9687,-0.9689,-0.9659,0,0,-0.9696,-0.9697,0,0,0,0,0,0,0,0,-0.9317,-0.9325,-0.9416,-0.9423,-0.9431,-0.9508,-0.9467,-0.9531,-0.9573,-0.9521,-0.9578,-0.9581,-0.9625,-0.9632,-0.9647,-0.9664,-0.9668,-0.9696,-0.9697,-0.9698,-0.9699,0,0,0,0,0,0,0,-0.9312,-0.9321,-0.9401,-0.9417,-0.9427,-0.9453,-0.9465,-0.9479,-0.9559,-0.9525,-0.9533,-0.9544,-0.9629,-0.9644,-0.965,-0.967,-0.9696,-0.9698,-0.9699,-0.97,-0.9665,-0.9663,0,0,0,0,0,0,-0.9297,-0.9316,-0.9398,-0.9404,-0.9378,-0.9453,-0.9467,-0.9481,-0.9559,-0.9573,-0.9542,-0.9549,-0.9639,-0.9647,-0.9654,-0.9622,-0.9698,-0.97,-0.9701,-0.9667,-0.9664,-0.9662,0,0,0,0,0,0,-0.9294,-0.9303,-0.9393,-0.9362,-0.9376,-0.9452,-0.9468,-0.9482,-0.9498,-0.9572,-0.9587,-0.9543,-0.9642,-0.9651,-0.9656,-0.9627,-0.9701,-0.9703,-0.967,-0.9666,-0.9663,-0.9558,0,0,0,0,0,0,-0.9291,-0.9302,-0.9291,-0.9361,-0.9377,-0.9393,-0.9466,-0.9483,-0.9501,-0.9511,-0.9577,-0.959,-0.9644,-0.9652,-0.9658,-0.9632,-0.9705,-0.9673,-0.9668,-0.9664,-0.9564,-0.9552,-0.954,0,0,0,0,0,-0.9286,-0.9258,-0.929,-0.9299,-0.9366,-0.9392,-0.9401,-0.9463,-0.9498,-0.9488,-0.9536,-0.9588,-0.963,-0.9652,-0.966,-0.9633,-0.9675,-0.9669,-0.9664,-0.957,-0.9554,-0.9541,0,0,0,0,0,0,-0.9183,-0.9269,-0.9305,-0.9299,-0.9337,-0.941,-0.9399,-0.9445,-0.9474,-0.9482,-0.9559,-0.9573,-0.9568,-0.9602,-0.9625,-0.9607,-0.9659,-0.9656,-0.9585,-0.9571,-0.9559,-0.955,-0.9707,0,0,0,0,0,-0.9159,-0.9173,-0.9248,-0.9235,-0.9252,-0.9322,-0.9335,-0.938,-0.9423,-0.944,-0.9488,-0.9527,-0.9549,-0.9562,-0.9587,-0.9571,-0.9585,-0.9556,-0.9544,-0.9534,-0.9529,-0.952,-0.9507,-0.9645,-0.9645,-0.9645,0,0,-0.9111,-0.916,-0.9164,-0.9215,-0.925,-0.9262,-0.9335,-0.9345,-0.9354,-0.9442,-0.9448,-0.9485,-0.9534,-0.9527,-0.9527,-0.9555,-0.9494,-0.9527,-0.9519,-0.9519,-0.9514,-0.95,-0.9489,-0.9641,-0.9642,-0.9643,0,0,-0.9028,-0.9067,-0.906,-0.9093,-0.9144,-0.9191,-0.9188,-0.9254,-0.9281,-0.9289,-0.9354,-0.9367,-0.9404,-0.9435,-0.9456,-0.9383,-0.9431,-0.9389,-0.9325,-0.9316,-0.9305,-0.9296,-0.9267,-0.9256,-0.9384,-0.9384,-0.9384,0,-0.8961,-0.8982,-0.905,-0.9055,-0.9075,-0.9154,-0.9146,-0.9175,-0.9232,-0.9243,-0.9275,-0.9321,-0.936,-0.936,-0.9342,-0.9357,-0.9356,-0.9381,-0.9301,-0.9292,-0.9285,-0.9258,-0.9247,-0.9378,-0.9379,-0.9379,-0.938,0,-0.8896,-0.8909,-0.8897,-0.8948,-0.8967,-0.8966,-0.9032,-0.9043,-0.9086,-0.9129,-0.9135,-0.9184,-0.9219,-0.9223,-0.9265,-0.9228,-0.9244,-0.9287,-0.9341,-0.9265,-0.9241,-0.9232,-0.937,-0.9372,-0.9374,-0.9375,0,0,-0.8751,-0.8839,-0.8833,-0.8856,-0.8918,-0.8929,-0.8931,-0.8964,-0.8971,-0.9007,-0.9009,-0.9038,-0.9077,-0.9101,-0.9148,-0.9139,-0.9075,-0.9184,-0.9186,-0.9159,-0.9034,-0.8999,-0.8987,-0.9108,-0.9106,-0.9105,-0.9029,0,-0.8677,-0.8684,-0.8744,-0.8734,-0.8745,-0.882,-0.8821,-0.8859,-0.8898,-0.8914,-0.8958,-0.8976,-0.9028,-0.9042,-0.9038,-0.9084,-0.905,-0.909,-0.9109,-0.9109,-0.9092,-0.8975,-0.8939,-0.8865,-0.9021,-0.9019,-0.9018,0,-0.8592,-0.8622,-0.8611,-0.8671,-0.8678,-0.8678,-0.8712,-0.8727,-0.877,-0.8799,-0.8824,-0.8877,-0.8881,-0.8933,-0.894,-0.8965,-0.8977,-0.9,-0.8999,-0.9001,-0.9057,-0.8972,-0.8843,-0.8831,-0.9005,-0.9006,-0.9007,0,-0.8484,-0.8522,-0.852,-0.8538,-0.8608,-0.8606,-0.8635,-0.8681,-0.8696,-0.8726,-0.8736,-0.8767,-0.8783,-0.8805,-0.8863,-0.8896,-0.8862,-0.892,-0.8885,-0.8883,-0.8873,-0.8872,-0.8742,-0.8884,-0.8884,-0.8884,-0.8885,0,-0.8394,-0.8384,-0.8472,-0.847,-0.8461,-0.853,-0.8519,-0.8556,-0.8595,-0.8602,-0.8669,-0.8674,-0.8752,-0.8765,-0.8811,-0.8808,-0.8816,-0.8838,-0.885,-0.8831,-0.8827,-0.8838,-0.8843,-0.8881,-0.8882,-0.8883,-0.8883,0,-0.8272,-0.833,-0.8332,-0.8398,-0.8414,-0.8404,-0.846,-0.8461,-0.8505,-0.8511,-0.8517,-0.8585,-0.8604,-0.8665,-0.8699,-0.873,-0.8712,-0.8736,-0.8696,-0.8703,-0.8664,-0.8666,-0.8534,-0.8519,-0.8672,-0.8671,-0.867,0,-0.8209,-0.8203,-0.8268,-0.8276,-0.8302,-0.8316,-0.8331,-0.8398,-0.8412,-0.8459,-0.8454,-0.8478,-0.85,-0.8526,-0.8578,-0.8604,-0.8628,-0.858,-0.8633,-0.8612,-0.8625,-0.8623,-0.8622,-0.8568,-0.8566,-0.8564,-0.8563,0,-0.8092,-0.812,-0.814,-0.8168,-0.8184,-0.821,-0.8241,-0.8244,-0.8319,-0.833,-0.8349,-0.8366,-0.84,-0.8422,-0.8456,-0.8486,-0.8536,-0.8546,-0.8539,-0.8518,-0.8494,-0.8504,-0.8662,-0.8549,-0.855,-0.8551,-0.8552,-0.8553,-0.7997,-0.7993,-0.8037,-0.8056,-0.8085,-0.8111,-0.8114,-0.8157,-0.8174,-0.8206,-0.8245,-0.8258,-0.83,-0.8351,-0.8377,-0.8388,-0.8416,-0.8406,-0.8403,-0.8399,-0.8389,-0.8494,-0.8395,-0.8395,-0.8396,-0.8396,-0.8397,0,-0.788,-0.7912,-0.7928,-0.7967,-0.798,-0.8026,-0.8061,-0.807,-0.8081,-0.8115,-0.8135,-0.8156,-0.8177,-0.823,-0.8256,-0.8254,-0.8278,-0.8259,-0.8259,-0.8264,-0.8364,-0.8366,-0.8239,-0.8239,-0.8239,-0.8239,-0.8239,-0.8239,-0.7821,-0.7818,-0.7851,-0.7861,-0.7893,-0.7906,-0.7922,-0.7945,-0.7973,-0.7992,-0.801,-0.8044,-0.8086,-0.8115,-0.8135,-0.8151,-0.8156,-0.8128,-0.815,-0.8242,-0.8257,-0.8272,-0.8274,-0.813,-0.813,-0.805,-0.8049,-0.8048]},{"header":{"parameterUnit":"m.s-1","parameterCategory":1,"la1":30.2991,"la2":30.254,"lo1":-89.0895,"lo2":-89.0444,"dy":0.0017,"dx":0.0017,"nx":28,"ny":28,"refTime":"2024-06-03T21:00:00:Z","depth":0,"parameterNumber":3,"parameterNumberName":"V-component_of_WINDS"},"data":[0,0,0,0,0,0,0,0,0,0,0,0,0,0,0,0,0,0,0,0,0,0,0,0,0,0,0,0,0,0,0,0,0,0,0,0,0,0,0,0,0,0,0,0,0,0,0,0,0,0,0,0,0,0,0,0,0,0,4.2149,4.215,0,4.2245,4.2246,4.2247,4.2267,4.2266,4.2265,4.2264,4.2359,4.2362,4.2365,0,0,0,0,0,0,0,0,0,0,0,0,0,4.198,4.1983,4.2149,4.215,4.2151,4.2244,4.2246,4.2247,4.2267,4.2266,4.2265,4.2264,4.2358,4.2362,4.2365,0,0,0,0,0,0,0,0,0,0,0,0,0,4.2062,4.1984,4.2149,4.2172,4.2176,4.2244,4.2246,4.2247,4.2267,4.2266,4.2265,4.2264,4.2357,4.2361,4.2366,4.2417,0,0,4.238,4.2382,0,0,0,0,0,0,0,0,4.2058,4.2068,4.2168,4.2171,4.2175,4.2243,4.2221,4.2304,4.2267,4.2232,4.2264,4.2263,4.2321,4.2328,4.2349,4.2421,4.2425,4.2381,4.2384,4.2386,4.2387,0,0,0,0,0,0,0,4.2052,4.2064,4.2187,4.2169,4.2173,4.2177,4.2188,4.2237,4.2281,4.2235,4.2237,4.2248,4.2322,4.2344,4.2351,4.2427,4.2381,4.2385,4.2388,4.239,4.2545,4.2546,0,0,0,0,0,0,4.2042,4.206,4.2184,4.219,4.2112,4.2181,4.2193,4.2222,4.2281,4.2289,4.2249,4.2248,4.2336,4.2345,4.2354,4.2418,4.2386,4.239,4.2393,4.2544,4.2546,4.2547,0,0,0,0,0,0,4.2039,4.2053,4.218,4.2125,4.2142,4.2185,4.2217,4.2224,4.2246,4.2291,4.2299,4.2263,4.2336,4.2348,4.2401,4.2421,4.2392,4.2397,4.2542,4.2544,4.2546,4.2544,0,0,0,0,0,0,4.2034,4.2052,4.2072,4.2126,4.2144,4.2226,4.2219,4.2227,4.2254,4.2255,4.2306,4.2314,4.2336,4.2394,4.2406,4.2427,4.24,4.2541,4.2543,4.2546,4.2543,4.2546,4.2549,0,0,0,0,0,4.2028,4.2067,4.2073,4.2088,4.2171,4.2227,4.2238,4.2264,4.2256,4.2276,4.2306,4.2312,4.2417,4.2399,4.2413,4.2436,4.254,4.2543,4.2545,4.2542,4.2545,4.2549,0,0,0,0,0,0,4.2014,4.2075,4.2082,4.214,4.2179,4.223,4.2257,4.2267,4.2307,4.2306,4.2335,4.2346,4.2398,4.2422,4.2402,4.2488,4.2478,4.2484,4.247,4.2474,4.2477,4.247,4.2404,0,0,0,0,0,4.2018,4.206,4.211,4.2156,4.2176,4.2213,4.2238,4.2255,4.2295,4.2311,4.2344,4.2382,4.2424,4.245,4.2491,4.2547,4.2558,4.2569,4.2572,4.2574,4.2579,4.2609,4.2615,4.2556,4.2556,4.2556,0,0,4.2027,4.2065,4.2089,4.2155,4.2186,4.2228,4.2226,4.227,4.2301,4.2318,4.237,4.2396,4.244,4.2495,4.2521,4.2517,4.2597,4.2578,4.2579,4.2583,4.2613,4.2618,4.2623,4.2558,4.2558,4.2558,0,0,4.2063,4.2096,4.2139,4.2171,4.2219,4.2244,4.2254,4.2305,4.2322,4.2376,4.239,4.2426,4.2497,4.2528,4.2553,4.2602,4.2609,4.2614,4.2629,4.2659,4.2663,4.2667,4.2684,4.269,4.2618,4.2618,4.2618,0,4.2067,4.2131,4.2159,4.2203,4.2231,4.2249,4.2291,4.2321,4.2379,4.2398,4.2393,4.2483,4.2514,4.2576,4.2588,4.2608,4.2619,4.2608,4.266,4.2665,4.2669,4.2685,4.2692,4.2618,4.2618,4.2618,4.2618,0,4.2133,4.2177,4.2205,4.2263,4.2294,4.2337,4.237,4.2399,4.2412,4.2437,4.2492,4.253,4.2578,4.2595,4.2608,4.2659,4.2655,4.2655,4.2645,4.2675,4.269,4.2697,4.2619,4.2619,4.2619,4.2619,0,0,4.2163,4.2236,4.2246,4.2272,4.2327,4.2361,4.2404,4.2453,4.2476,4.2516,4.2553,4.2613,4.2613,4.2642,4.2659,4.2685,4.272,4.2682,4.2683,4.2687,4.2778,4.2777,4.2784,4.2726,4.2727,4.2728,4.2774,0,4.2206,4.2285,4.2311,4.2376,4.2417,4.2435,4.2472,4.2509,4.2534,4.2571,4.2598,4.264,4.2638,4.2655,4.2682,4.271,4.2739,4.2707,4.2759,4.276,4.2747,4.2792,4.2791,4.2833,4.278,4.2781,4.2782,0,4.2266,4.2308,4.2377,4.2427,4.2445,4.2478,4.2525,4.2561,4.2603,4.2619,4.2651,4.2666,4.2711,4.2699,4.2761,4.2739,4.2762,4.2779,4.2782,4.2787,4.2773,4.2798,4.2846,4.2852,4.2792,4.2791,4.2791,0,4.2281,4.2354,4.2405,4.2427,4.2486,4.2509,4.2535,4.2576,4.2604,4.2644,4.2662,4.2707,4.2732,4.2766,4.2792,4.2781,4.2852,4.2842,4.2865,4.2864,4.2879,4.2877,4.2931,4.2894,4.2894,4.2894,4.2894,0,4.2325,4.2367,4.2412,4.2444,4.2491,4.252,4.2565,4.2592,4.2629,4.2665,4.2683,4.2716,4.2749,4.2787,4.2808,4.2855,4.2866,4.288,4.2885,4.2878,4.2876,4.2893,4.289,4.2896,4.2895,4.2895,4.2895,0,4.2349,4.2382,4.2438,4.249,4.2504,4.2536,4.258,4.261,4.2636,4.2681,4.2693,4.2733,4.2778,4.2808,4.2865,4.288,4.2931,4.2936,4.2917,4.2919,4.2941,4.2938,4.3006,4.3016,4.2973,4.2974,4.2974,0,4.2375,4.2408,4.2463,4.2489,4.2515,4.2556,4.2585,4.2615,4.2644,4.2695,4.2719,4.2765,4.2804,4.2875,4.2908,4.2952,4.2957,4.2978,4.2964,4.2956,4.2957,4.2954,4.2957,4.298,4.298,4.298,4.2981,0,4.2418,4.2432,4.2473,4.252,4.2554,4.2592,4.263,4.2649,4.2686,4.2717,4.2764,4.2794,4.2853,4.2899,4.2946,4.2971,4.2982,4.2985,4.2993,4.2986,4.2973,4.298,4.2923,4.2983,4.2983,4.2983,4.2983,4.2983,4.2444,4.2473,4.2517,4.2562,4.2594,4.2629,4.266,4.269,4.2729,4.278,4.2796,4.2844,4.2885,4.2949,4.2975,4.3013,4.3011,4.3022,4.3025,4.3027,4.3027,4.2968,4.3022,4.3022,4.3022,4.3022,4.3022,0,4.2487,4.2516,4.2557,4.261,4.2645,4.2653,4.2696,4.2724,4.2767,4.2805,4.2843,4.2896,4.294,4.2977,4.3023,4.3046,4.3052,4.3056,4.3055,4.306,4.3026,4.3015,4.3051,4.3051,4.3051,4.3051,4.3051,4.3051,4.2513,4.2564,4.2583,4.265,4.2678,4.2727,4.275,4.2782,4.2812,4.2872,4.2909,4.2933,4.297,4.3019,4.3059,4.3069,4.3085,4.3088,4.3099,4.3066,4.3063,4.3059,4.3049,4.3092,4.3092,4.313,4.313,4.313]}]]